TimeEDT,TemperatureF,Dew PointF,Humidity,Sea Level PressureIn,VisibilityMPH,Wind Direction,Wind SpeedMPH,Gust SpeedMPH,PrecipitationIn,Events,Conditions,WindDirDegrees,DateUTC
12:54 AM,39.9,25.0,55,30.17,-9999.0,North,3.5,-,N/A,,Clear,10,2014-04-01 04:54:00
1:54 AM,35.1,27.0,72,30.17,-9999.0,WNW,3.5,-,N/A,,Clear,290,2014-04-01 05:54:00
2:54 AM,33.1,25.0,72,30.16,-9999.0,Calm,Calm,-,N/A,,Clear,0,2014-04-01 06:54:00
3:54 AM,30.0,25.0,82,30.17,-9999.0,Calm,Calm,-,N/A,,Clear,0,2014-04-01 07:54:00
4:54 AM,30.9,24.1,76,30.16,-9999.0,North,3.5,-,N/A,,Clear,350,2014-04-01 08:54:00
5:54 AM,28.9,24.1,82,30.16,-9999.0,Variable,3.5,-,N/A,,Clear,0,2014-04-01 09:54:00
6:54 AM,28.9,24.1,82,30.17,10.0,Calm,Calm,-,N/A,,Clear,0,2014-04-01 10:54:00
7:54 AM,32.0,26.1,79,30.17,10.0,Calm,Calm,-,N/A,,Clear,0,2014-04-01 11:54:00
8:54 AM,36.0,28.0,73,30.18,10.0,West,3.5,-,N/A,,Clear,270,2014-04-01 12:54:00
9:54 AM,42.1,27.0,55,30.15,10.0,Calm,Calm,-,N/A,,Clear,0,2014-04-01 13:54:00
10:54 AM,45.0,28.0,52,30.13,10.0,Calm,Calm,-,N/A,,Mostly Cloudy,0,2014-04-01 14:54:00
11:54 AM,48.9,28.0,44,30.10,10.0,Variable,4.6,-,N/A,,Mostly Cloudy,0,2014-04-01 15:54:00
12:54 PM,52.0,28.0,40,30.06,10.0,Variable,4.6,-,N/A,,Mostly Cloudy,0,2014-04-01 16:54:00
1:54 PM,53.1,28.0,38,30.03,10.0,Variable,3.5,-,N/A,,Mostly Cloudy,0,2014-04-01 17:54:00
2:54 PM,54.0,28.0,37,30.00,10.0,SE,6.9,-,N/A,,Mostly Cloudy,140,2014-04-01 18:54:00
3:54 PM,55.0,28.9,37,29.97,10.0,ESE,6.9,-,N/A,,Mostly Cloudy,120,2014-04-01 19:54:00
4:54 PM,57.9,30.0,35,29.93,10.0,ESE,9.2,-,N/A,,Clear,110,2014-04-01 20:54:00
5:54 PM,57.0,30.0,36,29.94,10.0,SE,12.7,-,N/A,,Clear,140,2014-04-01 21:54:00
6:54 PM,55.9,30.0,37,29.94,10.0,Variable,6.9,-,N/A,,Clear,0,2014-04-01 22:54:00
7:54 PM,54.0,30.0,40,29.94,10.0,East,8.1,-,N/A,,Clear,90,2014-04-01 23:54:00
8:54 PM,55.0,30.9,40,29.97,10.0,Variable,6.9,-,N/A,,Clear,0,2014-04-02 00:54:00
9:54 PM,52.0,32.0,47,29.96,10.0,East,8.1,-,N/A,,Clear,80,2014-04-02 01:54:00
10:54 PM,50.0,32.0,50,29.97,10.0,East,8.1,-,N/A,,Clear,80,2014-04-02 02:54:00
11:54 PM,44.1,33.1,65,29.96,10.0,South,4.6,-,N/A,,Clear,190,2014-04-02 03:54:00